Flag for Turkmenistan Weather past 2 weeks in Ashgabat, Turkmenistan

Now
37 °F

Overcast.


Feels Like: 33 °F
Forecast: 40 / 59 °F
Wind: 6 mph from Southeast

Location: Ashgabat

Current Time: Feb 28, 2015 at 5:36:34 AM

Latest Report: Feb 28, 2015 at 5:00 AM


Visibility: N/A

Pressure: 30.39 "Hg

Humidity: 87%

Dew point: 34 °F

Location of AshgabatLocation

Historic Weather in Ashgabat — Graph

°F

Ashgabat temperature yesterday

Maximum temperature yesterday: 41 °F (at 12:00 AM)
Minimum temperature yesterday: 37 °F (at 4:00 AM)
Average temperature yesterday: 39 °F

Past Weeks' High & Low Weather Summary

 TemperatureHumidityPressure
High57 °F (Feb 13, 3:00 PM)100% (Feb 13, 7:30 AM)30.54 "Hg (Feb 13, 7:30 AM)
Low30 °F (Feb 22, 11:30 PM)44% (Feb 25, 2:00 PM)29.77 "Hg (Feb 21, 5:00 AM)
Average43 °F88%30.11 "Hg
* Reported Feb 13 4:00 AM — Feb 28 4:00 AM, Ashgabat, Weather by CustomWeather, © 2015

Note: Actual official high and low records may vary slightly from our data, if they occured in-between our weather recording intervals... More about our weather records

Advertising

Ashgabat weather history for previous 24 hours

 ConditionsComfort  
Time TempWeatherWind HumidityBarometerVisibility
4:00 AM
Sat, Feb 28
39 °FOvercast.6 mph81%30.39 "HgN/A
3:00 AM39 °FOvercast.6 mph81%30.42 "HgN/A
2:00 AM39 °FOvercast.6 mph81%30.45 "HgN/A
1:00 AM39 °FOvercast.6 mph81%30.45 "HgN/A
12:00 AM39 °FSprinkles. Overcast.6 mph81%30.48 "HgN/A
11:00 PM
Fri, Feb 27
39 °FOvercast.3 mph81%30.48 "HgN/A
10:00 PM39 °FLight rain. Overcast.3 mph87%30.51 "HgN/A
9:30 PM39 °FLight rain. Overcast.3 mph87%30.51 "HgN/A
9:00 PM39 °FLight rain. Overcast.6 mph87%30.51 "HgN/A
8:00 PM39 °FOvercast.3 mph75%30.51 "HgN/A
7:00 PM41 °FOvercast.No wind70%30.51 "HgN/A
6:00 PM41 °FOvercast.1 mph70%30.51 "HgN/A
5:00 PM41 °FOvercast.1 mph70%30.48 "HgN/A
4:00 PM41 °FOvercast.No wind70%30.48 "HgN/A
3:00 PM39 °FOvercast.No wind75%30.48 "HgN/A
2:00 PM39 °FOvercast.1 mph75%30.51 "HgN/A
1:00 PM39 °FOvercast.1 mph75%30.51 "HgN/A
12:00 PM37 °FLight rain. Overcast.3 mph81%30.54 "HgN/A
11:00 AM37 °FLight rain. Overcast.6 mph81%30.54 "HgN/A
10:00 AM37 °FLight rain. Overcast.6 mph87%30.54 "HgN/A
9:00 AM37 °FOvercast.6 mph81%30.51 "HgN/A
8:00 AM37 °FDrizzle. Overcast.3 mph81%30.48 "HgN/A
7:00 AM37 °FOvercast.3 mph81%30.48 "HgN/A
6:00 AM37 °FOvercast.3 mph81%30.45 "HgN/A
5:00 AM37 °FOvercast.6 mph81%30.45 "HgN/A
Weather by CustomWeather, © 2015

See weather overviewHow to use our weather pages